Year,Month,Day,Hour,Minute,Value (Times are PST for temperature in C)
2019,04,28,00,00,6.10
2019,04,28,00,01,6.10
2019,04,28,00,02,6.10
2019,04,28,00,03,6.10
2019,04,28,00,04,6.00
2019,04,28,00,05,6.00
2019,04,28,00,06,6.00
2019,04,28,00,07,6.00
2019,04,28,00,08,6.00
2019,04,28,00,09,5.90
2019,04,28,00,10,5.90
2019,04,28,00,11,5.90
2019,04,28,00,12,5.90
2019,04,28,00,13,5.90
2019,04,28,00,14,5.90
2019,04,28,00,15,5.90
2019,04,28,00,16,5.80
2019,04,28,00,17,5.80
2019,04,28,00,18,5.80
2019,04,28,00,19,5.80
2019,04,28,00,20,5.80
2019,04,28,00,21,5.80
2019,04,28,00,22,5.80
2019,04,28,00,23,5.80
2019,04,28,00,24,5.70
2019,04,28,00,25,5.70
2019,04,28,00,26,5.70
2019,04,28,00,27,5.70
2019,04,28,00,28,5.70
2019,04,28,00,29,5.70
2019,04,28,00,30,5.70
2019,04,28,00,31,5.70
2019,04,28,00,32,5.70
2019,04,28,00,33,5.70
2019,04,28,00,34,5.70
2019,04,28,00,35,5.70
2019,04,28,00,36,5.70
2019,04,28,00,37,5.60
2019,04,28,00,38,5.60
2019,04,28,00,39,5.60
2019,04,28,00,40,5.60
2019,04,28,00,41,5.60
2019,04,28,00,42,5.60
2019,04,28,00,43,5.50
2019,04,28,00,44,5.50
2019,04,28,00,45,5.40
2019,04,28,00,46,5.40
2019,04,28,00,47,5.40
2019,04,28,00,48,5.30
2019,04,28,00,49,5.30
2019,04,28,00,50,5.30
2019,04,28,00,51,5.30
2019,04,28,00,52,5.30
2019,04,28,00,53,5.20
2019,04,28,00,54,5.20
2019,04,28,00,55,5.20
2019,04,28,00,56,5.20
2019,04,28,00,57,5.10
2019,04,28,00,58,5.10
2019,04,28,00,59,5.10
2019,04,28,01,00,5.10
2019,04,28,01,01,5.00
2019,04,28,01,02,5.00
2019,04,28,01,03,5.00
2019,04,28,01,04,4.90
2019,04,28,01,05,4.90
2019,04,28,01,06,4.90
2019,04,28,01,07,4.90
2019,04,28,01,08,4.90
2019,04,28,01,09,4.90
2019,04,28,01,10,4.90
2019,04,28,01,11,4.90
2019,04,28,01,12,4.80
2019,04,28,01,13,4.80
2019,04,28,01,14,4.80
2019,04,28,01,15,4.80
2019,04,28,01,16,4.80
2019,04,28,01,17,4.80
2019,04,28,01,18,4.80
2019,04,28,01,19,4.80
2019,04,28,01,20,4.80
2019,04,28,01,21,4.80
2019,04,28,01,22,4.80
2019,04,28,01,23,4.70
2019,04,28,01,24,4.70
2019,04,28,01,25,4.70
2019,04,28,01,26,4.70
2019,04,28,01,27,4.70
2019,04,28,01,28,4.70
2019,04,28,01,29,4.70
2019,04,28,01,30,4.70
2019,04,28,01,31,4.60
2019,04,28,01,32,4.60
2019,04,28,01,33,4.60
2019,04,28,01,34,4.60
2019,04,28,01,35,4.60
2019,04,28,01,36,4.60
2019,04,28,01,37,4.60
2019,04,28,01,38,4.50
2019,04,28,01,39,4.50
2019,04,28,01,40,4.40
2019,04,28,01,41,4.40
2019,04,28,01,42,4.40
2019,04,28,01,43,4.40
2019,04,28,01,44,4.40
2019,04,28,01,45,4.30
2019,04,28,01,46,4.30
2019,04,28,01,47,4.30
2019,04,28,01,48,4.30
2019,04,28,01,49,4.20
2019,04,28,01,50,4.20
2019,04,28,01,51,4.20
2019,04,28,01,52,4.20
2019,04,28,01,53,4.20
2019,04,28,01,54,4.20
2019,04,28,01,55,4.10
2019,04,28,01,56,4.10
2019,04,28,01,57,4.10
2019,04,28,01,58,4.10
2019,04,28,01,59,4.10
2019,04,28,02,00,4.10
2019,04,28,02,01,4.10
2019,04,28,02,02,4.10
2019,04,28,02,03,4.00
2019,04,28,02,04,4.00
2019,04,28,02,05,4.00
2019,04,28,02,06,4.00
2019,04,28,02,07,4.00
2019,04,28,02,08,4.00
2019,04,28,02,09,4.00
2019,04,28,02,10,4.00
2019,04,28,02,11,4.00
2019,04,28,02,12,4.00
2019,04,28,02,13,4.00
2019,04,28,02,14,3.90
2019,04,28,02,15,3.90
2019,04,28,02,16,3.90
2019,04,28,02,17,3.90
2019,04,28,02,18,3.90
2019,04,28,02,19,3.90
2019,04,28,02,20,3.90
2019,04,28,02,21,3.90
2019,04,28,02,22,3.90
2019,04,28,02,23,3.90
2019,04,28,02,24,3.90
2019,04,28,02,25,3.90
2019,04,28,02,26,3.90
2019,04,28,02,27,3.90
2019,04,28,02,28,3.80
2019,04,28,02,29,3.80
2019,04,28,02,30,3.80
2019,04,28,02,31,3.80
2019,04,28,02,32,3.80
2019,04,28,02,33,3.80
2019,04,28,02,34,3.80
2019,04,28,02,35,3.80
2019,04,28,02,36,3.80
2019,04,28,02,37,3.80
2019,04,28,02,38,3.70
2019,04,28,02,39,3.70
2019,04,28,02,40,3.70
2019,04,28,02,41,3.70
2019,04,28,02,42,3.70
2019,04,28,02,43,3.70
2019,04,28,02,44,3.70
2019,04,28,02,45,3.70
2019,04,28,02,46,3.80
2019,04,28,02,47,3.80
2019,04,28,02,48,3.80
2019,04,28,02,49,3.80
2019,04,28,02,50,3.70
2019,04,28,02,51,3.70
2019,04,28,02,52,3.70
2019,04,28,02,53,3.70
2019,04,28,02,54,3.70
2019,04,28,02,55,3.70
2019,04,28,02,56,3.70
2019,04,28,02,57,3.60
2019,04,28,02,58,3.60
2019,04,28,02,59,3.60
2019,04,28,03,00,3.60
2019,04,28,03,01,3.60
2019,04,28,03,02,3.60
2019,04,28,03,03,3.60
2019,04,28,03,04,3.60
2019,04,28,03,05,3.50
2019,04,28,03,06,3.50
2019,04,28,03,07,3.50
2019,04,28,03,08,3.50
2019,04,28,03,09,3.50
2019,04,28,03,10,3.40
2019,04,28,03,11,3.40
2019,04,28,03,12,3.40
2019,04,28,03,13,3.40
2019,04,28,03,14,3.40
2019,04,28,03,15,3.40
2019,04,28,03,16,3.40
2019,04,28,03,17,3.40
2019,04,28,03,18,3.30
2019,04,28,03,19,3.30
2019,04,28,03,20,3.30
2019,04,28,03,21,3.30
2019,04,28,03,22,3.30
2019,04,28,03,23,3.30
2019,04,28,03,24,3.30
2019,04,28,03,25,3.30
2019,04,28,03,26,3.30
2019,04,28,03,27,3.30
2019,04,28,03,28,3.30
2019,04,28,03,29,3.30
2019,04,28,03,30,3.30
2019,04,28,03,31,3.30
2019,04,28,03,32,3.20
2019,04,28,03,33,3.20
2019,04,28,03,34,3.20
2019,04,28,03,35,3.20
2019,04,28,03,36,3.20
2019,04,28,03,37,3.20
2019,04,28,03,38,3.20
2019,04,28,03,39,3.20
2019,04,28,03,40,3.20
2019,04,28,03,41,3.10
2019,04,28,03,42,3.10
2019,04,28,03,43,3.10
2019,04,28,03,44,3.10
2019,04,28,03,45,3.10
2019,04,28,03,46,3.10
2019,04,28,03,47,3.00
2019,04,28,03,48,3.00
2019,04,28,03,49,3.00
2019,04,28,03,50,2.90
2019,04,28,03,51,2.90
2019,04,28,03,52,2.90
2019,04,28,03,53,2.90
2019,04,28,03,54,2.90
2019,04,28,03,55,2.90
2019,04,28,03,56,2.90
2019,04,28,03,57,2.80
2019,04,28,03,58,2.80
2019,04,28,03,59,2.80
2019,04,28,04,00,2.80
2019,04,28,04,01,2.80
2019,04,28,04,02,2.80
2019,04,28,04,03,2.80
2019,04,28,04,04,2.80
2019,04,28,04,05,2.80
2019,04,28,04,06,2.80
2019,04,28,04,07,2.80
2019,04,28,04,08,2.80
2019,04,28,04,09,2.90
2019,04,28,04,10,2.90
2019,04,28,04,11,2.90
2019,04,28,04,12,2.90
2019,04,28,04,13,2.90
2019,04,28,04,14,2.90
2019,04,28,04,15,2.90
2019,04,28,04,16,2.90
2019,04,28,04,17,2.90
2019,04,28,04,18,2.90
2019,04,28,04,19,3.00
2019,04,28,04,20,3.00
2019,04,28,04,21,3.00
2019,04,28,04,22,3.00
2019,04,28,04,23,3.00
2019,04,28,04,24,3.00
2019,04,28,04,25,3.00
2019,04,28,04,26,3.00
2019,04,28,04,27,3.00
2019,04,28,04,28,2.90
2019,04,28,04,29,2.90
2019,04,28,04,30,2.90
2019,04,28,04,31,2.90
2019,04,28,04,32,2.90
2019,04,28,04,33,2.80
2019,04,28,04,34,2.80
2019,04,28,04,35,2.80
2019,04,28,04,36,2.80
2019,04,28,04,37,2.80
2019,04,28,04,38,2.80
2019,04,28,04,39,2.80
2019,04,28,04,40,2.70
2019,04,28,04,41,2.70
2019,04,28,04,42,2.70
2019,04,28,04,43,2.70
2019,04,28,04,44,2.70
2019,04,28,04,45,2.70
2019,04,28,04,46,2.70
2019,04,28,04,47,2.70
2019,04,28,04,48,2.70
2019,04,28,04,49,2.70
2019,04,28,04,50,2.70
2019,04,28,04,51,2.70
2019,04,28,04,52,2.70
2019,04,28,04,53,2.70
2019,04,28,04,54,2.70
2019,04,28,04,55,2.70
2019,04,28,04,56,2.70
2019,04,28,04,57,2.70
2019,04,28,04,58,2.70
2019,04,28,04,59,2.70
2019,04,28,05,00,2.70
2019,04,28,05,01,2.70
2019,04,28,05,02,2.70
2019,04,28,05,03,2.60
2019,04,28,05,04,2.60
2019,04,28,05,05,2.60
2019,04,28,05,06,2.60
2019,04,28,05,07,2.60
2019,04,28,05,08,2.60
2019,04,28,05,09,2.50
2019,04,28,05,10,2.50
2019,04,28,05,11,2.50
2019,04,28,05,12,2.50
2019,04,28,05,13,2.50
2019,04,28,05,14,2.40
2019,04,28,05,15,2.40
2019,04,28,05,16,2.40
2019,04,28,05,17,2.40
2019,04,28,05,18,2.40
2019,04,28,05,19,2.40
2019,04,28,05,20,2.40
2019,04,28,05,21,2.40
2019,04,28,05,22,2.40
2019,04,28,05,23,2.40
2019,04,28,05,24,2.40
2019,04,28,05,25,2.40
2019,04,28,05,26,2.40
2019,04,28,05,27,2.40
2019,04,28,05,28,2.40
2019,04,28,05,29,2.40
2019,04,28,05,30,2.40
2019,04,28,05,31,2.30
2019,04,28,05,32,2.30
2019,04,28,05,33,2.30
2019,04,28,05,34,2.40
2019,04,28,05,35,2.40
2019,04,28,05,36,2.40
2019,04,28,05,37,2.40
2019,04,28,05,38,2.40
2019,04,28,05,39,2.40
2019,04,28,05,40,2.40
2019,04,28,05,41,2.40
2019,04,28,05,42,2.40
2019,04,28,05,43,2.40
2019,04,28,05,44,2.40
2019,04,28,05,45,2.40
2019,04,28,05,46,2.40
2019,04,28,05,47,2.40
2019,04,28,05,48,2.40
2019,04,28,05,49,2.40
2019,04,28,05,50,2.40
2019,04,28,05,51,2.40
2019,04,28,05,52,2.40
2019,04,28,05,53,2.40
2019,04,28,05,54,2.50
2019,04,28,05,55,2.40
2019,04,28,05,56,2.40
2019,04,28,05,57,2.40
2019,04,28,05,58,2.40
2019,04,28,05,59,2.40
2019,04,28,06,00,2.40
2019,04,28,06,01,2.40
2019,04,28,06,02,2.40
2019,04,28,06,03,2.40
2019,04,28,06,04,2.40
2019,04,28,06,05,2.40
2019,04,28,06,06,2.30
2019,04,28,06,07,2.30
2019,04,28,06,08,2.30
2019,04,28,06,09,2.30
2019,04,28,06,10,2.30
2019,04,28,06,11,2.30
2019,04,28,06,12,2.30
2019,04,28,06,13,2.30
2019,04,28,06,14,2.30
2019,04,28,06,15,2.30
2019,04,28,06,16,2.30
2019,04,28,06,17,2.30
2019,04,28,06,18,2.30
2019,04,28,06,19,2.30
2019,04,28,06,20,2.30
2019,04,28,06,21,2.30
2019,04,28,06,22,2.30
2019,04,28,06,23,2.30
2019,04,28,06,24,2.30
2019,04,28,06,25,2.30
2019,04,28,06,26,2.30
2019,04,28,06,27,2.30
2019,04,28,06,28,2.30
2019,04,28,06,29,2.30
2019,04,28,06,30,2.30
2019,04,28,06,31,2.20
2019,04,28,06,32,2.20
2019,04,28,06,33,2.20
2019,04,28,06,34,2.20
2019,04,28,06,35,2.30
2019,04,28,06,36,2.30
2019,04,28,06,37,2.30
2019,04,28,06,38,2.20
2019,04,28,06,39,2.20
2019,04,28,06,40,2.20
2019,04,28,06,41,2.30
2019,04,28,06,42,2.20
2019,04,28,06,43,2.20
2019,04,28,06,44,2.20
2019,04,28,06,45,2.30
2019,04,28,06,46,2.30
2019,04,28,06,47,2.30
2019,04,28,06,48,2.30
2019,04,28,06,49,2.30
2019,04,28,06,50,2.30
2019,04,28,06,51,2.30
2019,04,28,06,52,2.40
2019,04,28,06,53,2.40
2019,04,28,06,54,2.40
2019,04,28,06,55,2.40
2019,04,28,06,56,2.50
2019,04,28,06,57,2.50
2019,04,28,06,58,2.60
2019,04,28,06,59,2.60
2019,04,28,07,00,2.70
2019,04,28,07,01,2.70
2019,04,28,07,02,2.80
2019,04,28,07,03,2.90
2019,04,28,07,04,3.00
2019,04,28,07,05,3.00
2019,04,28,07,06,3.10
2019,04,28,07,07,3.20
2019,04,28,07,08,3.30
2019,04,28,07,09,3.40
2019,04,28,07,10,3.50
2019,04,28,07,11,3.60
2019,04,28,07,12,3.70
2019,04,28,07,13,3.80
2019,04,28,07,14,3.90
2019,04,28,07,15,4.00
2019,04,28,07,16,4.10
2019,04,28,07,17,4.20
2019,04,28,07,18,4.30
2019,04,28,07,19,4.40
2019,04,28,07,20,4.50
2019,04,28,07,21,4.60
2019,04,28,07,22,4.70
2019,04,28,07,23,4.90
2019,04,28,07,24,5.00
2019,04,28,07,25,5.20
2019,04,28,07,26,5.40
2019,04,28,07,27,5.60
2019,04,28,07,28,5.80
2019,04,28,07,29,6.10
2019,04,28,07,30,6.30
2019,04,28,07,31,6.50
2019,04,28,07,32,6.70
2019,04,28,07,33,6.90
2019,04,28,07,34,7.00
2019,04,28,07,35,7.20
2019,04,28,07,36,7.30
2019,04,28,07,37,7.50
2019,04,28,07,38,7.60
2019,04,28,07,39,7.70
2019,04,28,07,40,7.80
2019,04,28,07,41,7.90
2019,04,28,07,42,8.00
2019,04,28,07,43,8.10
2019,04,28,07,44,8.10
2019,04,28,07,45,8.20
2019,04,28,07,46,8.30
2019,04,28,07,47,8.30
2019,04,28,07,48,8.30
2019,04,28,07,49,8.40
2019,04,28,07,50,8.40
2019,04,28,07,51,8.50
2019,04,28,07,52,8.50
2019,04,28,07,53,8.60
2019,04,28,07,54,8.60
2019,04,28,07,55,8.70
2019,04,28,07,56,8.70
2019,04,28,07,57,8.70
2019,04,28,07,58,8.80
2019,04,28,07,59,8.80
2019,04,28,08,00,8.80
2019,04,28,08,01,8.90
2019,04,28,08,02,8.90
2019,04,28,08,03,8.90
2019,04,28,08,04,9.00
2019,04,28,08,05,9.10
2019,04,28,08,06,9.10
2019,04,28,08,07,9.10
2019,04,28,08,08,9.10
2019,04,28,08,09,9.10
2019,04,28,08,10,9.20
2019,04,28,08,11,9.20
2019,04,28,08,12,9.20
2019,04,28,08,13,9.20
2019,04,28,08,14,9.20
2019,04,28,08,15,9.20
2019,04,28,08,16,9.20
2019,04,28,08,17,9.30
2019,04,28,08,18,9.30
2019,04,28,08,19,9.30
2019,04,28,08,20,9.30
2019,04,28,08,21,9.30
2019,04,28,08,22,9.30
2019,04,28,08,23,9.40
2019,04,28,08,24,9.40
2019,04,28,08,25,9.40
2019,04,28,08,26,9.40
2019,04,28,08,27,9.40
2019,04,28,08,28,9.50
2019,04,28,08,29,9.50
2019,04,28,08,30,9.50
2019,04,28,08,31,9.50
2019,04,28,08,32,9.60
2019,04,28,08,33,9.60
2019,04,28,08,34,9.60
2019,04,28,08,35,9.60
2019,04,28,08,36,9.70
2019,04,28,08,37,9.70
2019,04,28,08,38,9.70
2019,04,28,08,39,9.70
2019,04,28,08,40,9.70
2019,04,28,08,41,9.80
2019,04,28,08,42,9.80
2019,04,28,08,43,9.80
2019,04,28,08,44,9.80
2019,04,28,08,45,9.80
2019,04,28,08,46,9.80
2019,04,28,08,47,9.90
2019,04,28,08,48,9.90
2019,04,28,08,49,9.90
2019,04,28,08,50,9.90
2019,04,28,08,51,9.90
2019,04,28,08,52,9.90
2019,04,28,08,53,9.90
2019,04,28,08,54,9.90
2019,04,28,08,55,9.90
2019,04,28,08,56,9.90
2019,04,28,08,57,9.90
2019,04,28,08,58,10.00
2019,04,28,08,59,10.00
2019,04,28,09,00,10.00
2019,04,28,09,01,10.00
2019,04,28,09,02,10.00
2019,04,28,09,03,10.10
2019,04,28,09,04,10.10
2019,04,28,09,05,10.10
2019,04,28,09,06,10.10
2019,04,28,09,07,10.10
2019,04,28,09,08,10.10
2019,04,28,09,09,10.20
2019,04,28,09,10,10.20
2019,04,28,09,11,10.20
2019,04,28,09,12,10.20
2019,04,28,09,13,10.30
2019,04,28,09,14,10.30
2019,04,28,09,15,10.30
2019,04,28,09,16,10.30
2019,04,28,09,17,10.30
2019,04,28,09,18,10.40
2019,04,28,09,19,10.50
2019,04,28,09,20,10.50
2019,04,28,09,21,10.50
2019,04,28,09,22,10.50
2019,04,28,09,23,10.50
2019,04,28,09,24,10.50
2019,04,28,09,25,10.60
2019,04,28,09,26,10.60
2019,04,28,09,27,10.60
2019,04,28,09,28,10.70
2019,04,28,09,29,10.70
2019,04,28,09,30,10.80
2019,04,28,09,31,10.90
2019,04,28,09,32,10.90
2019,04,28,09,33,10.90
2019,04,28,09,34,10.90
2019,04,28,09,35,10.90
2019,04,28,09,36,10.90
2019,04,28,09,37,10.90
2019,04,28,09,38,10.90
2019,04,28,09,39,10.90
2019,04,28,09,40,10.80
2019,04,28,09,41,10.80
2019,04,28,09,42,10.80
2019,04,28,09,43,10.80
2019,04,28,09,44,10.80
2019,04,28,09,45,10.80
2019,04,28,09,46,10.80
2019,04,28,09,47,10.80
2019,04,28,09,48,10.90
2019,04,28,09,49,10.90
2019,04,28,09,50,10.80
2019,04,28,09,51,10.80
2019,04,28,09,52,10.80
2019,04,28,09,53,10.80
2019,04,28,09,54,10.80
2019,04,28,09,55,10.80
2019,04,28,09,56,10.90
2019,04,28,09,57,10.90
2019,04,28,09,58,11.00
2019,04,28,09,59,11.10
2019,04,28,10,00,11.20
2019,04,28,10,01,11.20
2019,04,28,10,02,11.30
2019,04,28,10,03,11.40
2019,04,28,10,04,11.50
2019,04,28,10,05,11.50
2019,04,28,10,06,11.60
2019,04,28,10,07,11.70
2019,04,28,10,08,11.70
2019,04,28,10,09,11.60
2019,04,28,10,10,11.50
2019,04,28,10,11,11.50
2019,04,28,10,12,11.50
2019,04,28,10,13,11.50
2019,04,28,10,14,11.40
2019,04,28,10,15,11.40
2019,04,28,10,16,11.50
2019,04,28,10,17,11.60
2019,04,28,10,18,11.60
2019,04,28,10,19,11.60
2019,04,28,10,20,11.70
2019,04,28,10,21,11.80
2019,04,28,10,22,11.90
2019,04,28,10,23,11.90
2019,04,28,10,24,11.80
2019,04,28,10,25,11.80
2019,04,28,10,26,11.80
2019,04,28,10,27,11.90
2019,04,28,10,28,12.00
2019,04,28,10,29,12.00
2019,04,28,10,30,12.00
2019,04,28,10,31,11.90
2019,04,28,10,32,11.90
2019,04,28,10,33,11.80
2019,04,28,10,34,11.90
2019,04,28,10,35,12.00
2019,04,28,10,36,12.10
2019,04,28,10,37,12.20
2019,04,28,10,38,12.20
2019,04,28,10,39,12.30
2019,04,28,10,40,12.30
2019,04,28,10,41,12.30
2019,04,28,10,42,12.40
2019,04,28,10,43,12.30
2019,04,28,10,44,12.30
2019,04,28,10,45,12.20
2019,04,28,10,46,12.20
2019,04,28,10,47,12.20
2019,04,28,10,48,12.20
2019,04,28,10,49,12.30
2019,04,28,10,50,12.30
2019,04,28,10,51,12.40
2019,04,28,10,52,12.40
2019,04,28,10,53,12.40
2019,04,28,10,54,12.40
2019,04,28,10,55,12.30
2019,04,28,10,56,12.30
2019,04,28,10,57,12.30
2019,04,28,10,58,12.40
2019,04,28,10,59,12.50
2019,04,28,11,00,12.50
2019,04,28,11,01,12.50
2019,04,28,11,02,12.40
2019,04,28,11,03,12.50
2019,04,28,11,04,12.50
2019,04,28,11,05,12.60
2019,04,28,11,06,12.60
2019,04,28,11,07,12.70
2019,04,28,11,08,12.90
2019,04,28,11,09,13.00
2019,04,28,11,10,13.20
2019,04,28,11,11,13.30
2019,04,28,11,12,13.40
2019,04,28,11,13,13.40
2019,04,28,11,14,13.40
2019,04,28,11,15,13.40
2019,04,28,11,16,13.40
2019,04,28,11,17,13.40
2019,04,28,11,18,13.40
2019,04,28,11,19,13.40
2019,04,28,11,20,13.40
2019,04,28,11,21,13.40
2019,04,28,11,22,13.50
2019,04,28,11,23,13.50
2019,04,28,11,24,13.60
2019,04,28,11,25,13.50
2019,04,28,11,26,13.40
2019,04,28,11,27,13.40
2019,04,28,11,28,13.40
2019,04,28,11,29,13.40
2019,04,28,11,30,13.40
2019,04,28,11,31,13.40
2019,04,28,11,32,13.40
2019,04,28,11,33,13.30
2019,04,28,11,34,13.40
2019,04,28,11,35,13.50
2019,04,28,11,36,13.50
2019,04,28,11,37,13.60
2019,04,28,11,38,13.70
2019,04,28,11,39,13.70
2019,04,28,11,40,13.70
2019,04,28,11,41,13.70
2019,04,28,11,42,13.70
2019,04,28,11,43,13.70
2019,04,28,11,44,13.70
2019,04,28,11,45,13.70
2019,04,28,11,46,13.60
2019,04,28,11,47,13.60
2019,04,28,11,48,13.60
2019,04,28,11,49,13.70
2019,04,28,11,50,13.80
2019,04,28,11,51,13.90
2019,04,28,11,52,13.90
2019,04,28,11,53,13.90
2019,04,28,11,54,13.80
2019,04,28,11,55,13.80
2019,04,28,11,56,13.70
2019,04,28,11,57,13.70
2019,04,28,11,58,13.70
2019,04,28,11,59,13.70
2019,04,28,12,00,13.70
2019,04,28,12,01,13.70
2019,04,28,12,02,13.80
2019,04,28,12,03,13.90
2019,04,28,12,04,13.90
2019,04,28,12,05,14.00
2019,04,28,12,06,13.90
2019,04,28,12,07,13.80
2019,04,28,12,08,13.80
2019,04,28,12,09,13.80
2019,04,28,12,10,13.70
2019,04,28,12,11,13.80
2019,04,28,12,12,13.70
2019,04,28,12,13,13.60
2019,04,28,12,14,13.60
2019,04,28,12,15,13.60
2019,04,28,12,16,13.60
2019,04,28,12,17,13.80
2019,04,28,12,18,13.90
2019,04,28,12,19,13.90
2019,04,28,12,20,14.00
2019,04,28,12,21,14.10
2019,04,28,12,22,14.20
2019,04,28,12,23,14.20
2019,04,28,12,24,14.20
2019,04,28,12,25,14.20
2019,04,28,12,26,14.20
2019,04,28,12,27,14.20
2019,04,28,12,28,14.20
2019,04,28,12,29,14.20
2019,04,28,12,30,14.20
2019,04,28,12,31,14.20
2019,04,28,12,32,14.30
2019,04,28,12,33,14.40
2019,04,28,12,34,14.40
2019,04,28,12,35,14.40
2019,04,28,12,36,14.50
2019,04,28,12,37,14.60
2019,04,28,12,38,14.60
2019,04,28,12,39,14.70
2019,04,28,12,40,14.70
2019,04,28,12,41,14.80
2019,04,28,12,42,14.80
2019,04,28,12,43,14.70
2019,04,28,12,44,14.70
2019,04,28,12,45,14.70
2019,04,28,12,46,14.60
2019,04,28,12,47,14.60
2019,04,28,12,48,14.60
2019,04,28,12,49,14.60
2019,04,28,12,50,14.50
2019,04,28,12,51,14.50
2019,04,28,12,52,14.40
2019,04,28,12,53,14.40
2019,04,28,12,54,14.30
2019,04,28,12,55,14.30
2019,04,28,12,56,14.30
2019,04,28,12,57,14.30
2019,04,28,12,58,14.40
2019,04,28,12,59,14.40
2019,04,28,13,00,14.40
2019,04,28,13,01,14.30
2019,04,28,13,02,14.20
2019,04,28,13,03,14.20
2019,04,28,13,04,14.30
2019,04,28,13,05,14.30
2019,04,28,13,06,14.40
2019,04,28,13,07,14.50
2019,04,28,13,08,14.60
2019,04,28,13,09,14.60
2019,04,28,13,10,14.60
2019,04,28,13,11,14.70
2019,04,28,13,12,14.60
2019,04,28,13,13,14.60
2019,04,28,13,14,14.60
2019,04,28,13,15,14.40
2019,04,28,13,16,14.20
2019,04,28,13,17,14.10
2019,04,28,13,18,14.00
2019,04,28,13,19,13.90
2019,04,28,13,20,14.00
2019,04,28,13,21,14.10
2019,04,28,13,22,14.10
2019,04,28,13,23,14.10
2019,04,28,13,24,14.10
2019,04,28,13,25,14.00
2019,04,28,13,26,14.00
2019,04,28,13,27,13.90
2019,04,28,13,28,13.70
2019,04,28,13,29,13.60
2019,04,28,13,30,13.50
2019,04,28,13,31,13.40
2019,04,28,13,32,13.30
2019,04,28,13,33,13.30
2019,04,28,13,34,13.20
2019,04,28,13,35,13.20
2019,04,28,13,36,13.20
2019,04,28,13,37,13.20
2019,04,28,13,38,13.30
2019,04,28,13,39,13.20
2019,04,28,13,40,13.20
2019,04,28,13,41,13.10
2019,04,28,13,42,13.10
2019,04,28,13,43,13.00
2019,04,28,13,44,13.00
2019,04,28,13,45,12.90
2019,04,28,13,46,12.80
2019,04,28,13,47,12.70
2019,04,28,13,48,12.70
2019,04,28,13,49,12.70
2019,04,28,13,50,12.70
2019,04,28,13,51,12.80
2019,04,28,13,52,12.90
2019,04,28,13,53,13.00
2019,04,28,13,54,13.10
2019,04,28,13,55,13.20
2019,04,28,13,56,13.20
2019,04,28,13,57,13.20
2019,04,28,13,58,13.30
2019,04,28,13,59,13.40
2019,04,28,14,00,13.40
2019,04,28,14,01,13.40
2019,04,28,14,02,13.40
2019,04,28,14,03,13.40
2019,04,28,14,04,13.50
2019,04,28,14,05,13.50
2019,04,28,14,06,13.60
2019,04,28,14,07,13.60
2019,04,28,14,08,13.70
2019,04,28,14,09,13.80
2019,04,28,14,10,13.90
2019,04,28,14,11,13.90
2019,04,28,14,12,14.00
2019,04,28,14,13,14.10
2019,04,28,14,14,14.20
2019,04,28,14,15,14.20
2019,04,28,14,16,14.30
2019,04,28,14,17,14.30
2019,04,28,14,18,14.30
2019,04,28,14,19,14.30
2019,04,28,14,20,14.40
2019,04,28,14,21,14.50
2019,04,28,14,22,14.50
2019,04,28,14,23,14.50
2019,04,28,14,24,14.50
2019,04,28,14,25,14.50
2019,04,28,14,26,14.50
2019,04,28,14,27,14.60
2019,04,28,14,28,14.70
2019,04,28,14,29,14.70
2019,04,28,14,30,14.70
2019,04,28,14,31,14.80
2019,04,28,14,32,14.80
2019,04,28,14,33,15.00
2019,04,28,14,34,15.00
2019,04,28,14,35,14.90
2019,04,28,14,36,14.80
2019,04,28,14,37,14.80
2019,04,28,14,38,14.80
2019,04,28,14,39,14.80
2019,04,28,14,40,14.90
2019,04,28,14,41,14.90
2019,04,28,14,42,14.90
2019,04,28,14,43,15.00
2019,04,28,14,44,15.10
2019,04,28,14,45,15.20
2019,04,28,14,46,15.30
2019,04,28,14,47,15.40
2019,04,28,14,48,15.40
2019,04,28,14,49,15.30
2019,04,28,14,50,15.20
2019,04,28,14,51,15.20
2019,04,28,14,52,15.20
2019,04,28,14,53,15.20
2019,04,28,14,54,15.10
2019,04,28,14,55,15.10
2019,04,28,14,56,15.00
2019,04,28,14,57,14.90
2019,04,28,14,58,14.90
2019,04,28,14,59,15.00
2019,04,28,15,00,15.10
2019,04,28,15,01,15.30
2019,04,28,15,02,15.30
2019,04,28,15,03,15.40
2019,04,28,15,04,15.40
2019,04,28,15,05,15.40
2019,04,28,15,06,15.40
2019,04,28,15,07,15.50
2019,04,28,15,08,15.40
2019,04,28,15,09,15.40
2019,04,28,15,10,15.40
2019,04,28,15,11,15.40
2019,04,28,15,12,15.40
2019,04,28,15,13,15.50
2019,04,28,15,14,15.60
2019,04,28,15,15,15.70
2019,04,28,15,16,15.60
2019,04,28,15,17,15.60
2019,04,28,15,18,15.50
2019,04,28,15,19,15.50
2019,04,28,15,20,15.50
2019,04,28,15,21,15.60
2019,04,28,15,22,15.70
2019,04,28,15,23,15.60
2019,04,28,15,24,15.60
2019,04,28,15,25,15.50
2019,04,28,15,26,15.40
2019,04,28,15,27,15.30
2019,04,28,15,28,15.30
2019,04,28,15,29,15.20
2019,04,28,15,30,15.20
2019,04,28,15,31,15.20
2019,04,28,15,32,15.30
2019,04,28,15,33,15.30
2019,04,28,15,34,15.30
2019,04,28,15,35,15.20
2019,04,28,15,36,15.10
2019,04,28,15,37,15.00
2019,04,28,15,38,15.00
2019,04,28,15,39,14.90
2019,04,28,15,40,14.90
2019,04,28,15,41,14.90
2019,04,28,15,42,15.00
2019,04,28,15,43,15.10
2019,04,28,15,44,15.20
2019,04,28,15,45,15.20
2019,04,28,15,46,15.20
2019,04,28,15,47,15.20
2019,04,28,15,48,15.20
2019,04,28,15,49,15.20
2019,04,28,15,50,15.20
2019,04,28,15,51,15.10
2019,04,28,15,52,15.00
2019,04,28,15,53,14.90
2019,04,28,15,54,14.90
2019,04,28,15,55,14.80
2019,04,28,15,56,14.80
2019,04,28,15,57,14.80
2019,04,28,15,58,14.80
2019,04,28,15,59,14.80
2019,04,28,16,00,14.80
2019,04,28,16,01,14.80
2019,04,28,16,02,14.80
2019,04,28,16,03,14.80
2019,04,28,16,04,14.80
2019,04,28,16,05,14.80
2019,04,28,16,06,14.80
2019,04,28,16,07,14.90
2019,04,28,16,08,15.00
2019,04,28,16,09,15.00
2019,04,28,16,10,15.10
2019,04,28,16,11,15.10
2019,04,28,16,12,15.10
2019,04,28,16,13,15.20
2019,04,28,16,14,15.20
2019,04,28,16,15,15.20
2019,04,28,16,16,15.20
2019,04,28,16,17,15.20
2019,04,28,16,18,15.10
2019,04,28,16,19,15.00
2019,04,28,16,20,15.00
2019,04,28,16,21,15.10
2019,04,28,16,22,15.10
2019,04,28,16,23,15.10
2019,04,28,16,24,15.20
2019,04,28,16,25,15.20
2019,04,28,16,26,15.20
2019,04,28,16,27,15.30
2019,04,28,16,28,15.20
2019,04,28,16,29,15.20
2019,04,28,16,30,15.10
2019,04,28,16,31,15.10
2019,04,28,16,32,15.10
2019,04,28,16,33,15.20
2019,04,28,16,34,15.20
2019,04,28,16,35,15.30
2019,04,28,16,36,15.30
2019,04,28,16,37,15.30
2019,04,28,16,38,15.30
2019,04,28,16,39,15.30
2019,04,28,16,40,15.40
2019,04,28,16,41,15.40
2019,04,28,16,42,15.40
2019,04,28,16,43,15.50
2019,04,28,16,44,15.50
2019,04,28,16,45,15.60
2019,04,28,16,46,15.60
2019,04,28,16,47,15.60
2019,04,28,16,48,15.60
2019,04,28,16,49,15.70
2019,04,28,16,50,15.70
2019,04,28,16,51,15.60
2019,04,28,16,52,15.60
2019,04,28,16,53,15.50
2019,04,28,16,54,15.40
2019,04,28,16,55,15.40
2019,04,28,16,56,15.40
2019,04,28,16,57,15.40
2019,04,28,16,58,15.40
2019,04,28,16,59,15.50
2019,04,28,17,00,15.60
2019,04,28,17,01,15.70
2019,04,28,17,02,15.80
2019,04,28,17,03,15.70
2019,04,28,17,04,15.70
2019,04,28,17,05,15.60
2019,04,28,17,06,15.50
2019,04,28,17,07,15.50
2019,04,28,17,08,15.50
2019,04,28,17,09,15.50
2019,04,28,17,10,15.50
2019,04,28,17,11,15.50
2019,04,28,17,12,15.50
2019,04,28,17,13,15.60
2019,04,28,17,14,15.60
2019,04,28,17,15,15.60
2019,04,28,17,16,15.60
2019,04,28,17,17,15.60
2019,04,28,17,18,15.60
2019,04,28,17,19,15.60
2019,04,28,17,20,15.60
2019,04,28,17,21,15.60
2019,04,28,17,22,15.60
2019,04,28,17,23,15.60
2019,04,28,17,24,15.60
2019,04,28,17,25,15.60
2019,04,28,17,26,15.50
2019,04,28,17,27,15.50
2019,04,28,17,28,15.60
2019,04,28,17,29,15.60
2019,04,28,17,30,15.60
2019,04,28,17,31,15.50
2019,04,28,17,32,15.60
2019,04,28,17,33,15.50
2019,04,28,17,34,15.50
2019,04,28,17,35,15.40
2019,04,28,17,36,15.50
2019,04,28,17,37,15.50
2019,04,28,17,38,15.60
2019,04,28,17,39,15.60
2019,04,28,17,40,15.60
2019,04,28,17,41,15.70
2019,04,28,17,42,15.60